TimeCDT,TemperatureF,Dew PointF,Humidity,Sea Level PressureIn,VisibilityMPH,Wind Direction,Wind SpeedMPH,Gust SpeedMPH,PrecipitationIn,Events,Conditions,WindDirDegrees,DateUTC
12:15 AM,37.0,22.1,55,30.28,10.0,Calm,Calm,-,N/A,,Clear,0,2013-11-02 05:15:00
12:35 AM,36.0,23.7,61,30.28,10.0,Calm,Calm,-,N/A,,Clear,0,2013-11-02 05:35:00
12:55 AM,32.7,21.2,63,30.29,10.0,West,4.6,-,N/A,,Clear,280,2013-11-02 05:55:00
1:15 AM,33.4,21.0,60,30.29,10.0,NW,5.8,-,N/A,,Clear,310,2013-11-02 06:15:00
1:35 AM,32.5,20.8,62,30.29,10.0,WNW,5.8,-,N/A,,Clear,300,2013-11-02 06:35:00
1:55 AM,32.0,20.3,62,30.29,10.0,NW,5.8,-,N/A,,Clear,310,2013-11-02 06:55:00
2:15 AM,30.9,19.4,62,30.30,10.0,NW,5.8,-,N/A,,Clear,310,2013-11-02 07:15:00
2:35 AM,31.8,20.1,62,30.30,10.0,WNW,4.6,-,N/A,,Clear,300,2013-11-02 07:35:00
2:55 AM,30.9,22.1,70,30.31,10.0,WNW,5.8,-,N/A,,Clear,290,2013-11-02 07:55:00
3:15 AM,31.3,22.3,69,30.31,10.0,West,6.9,-,N/A,,Clear,260,2013-11-02 08:15:00
3:35 AM,30.7,21.9,70,30.31,10.0,West,6.9,-,N/A,,Clear,280,2013-11-02 08:35:00
3:55 AM,30.0,21.7,71,30.31,10.0,West,6.9,-,N/A,,Clear,280,2013-11-02 08:55:00
4:15 AM,29.7,21.9,73,30.31,10.0,West,6.9,-,N/A,,Clear,270,2013-11-02 09:15:00
4:35 AM,29.7,21.0,70,30.31,10.0,West,5.8,-,N/A,,Clear,280,2013-11-02 09:35:00
4:55 AM,29.1,21.4,73,30.31,10.0,West,5.8,-,N/A,,Clear,280,2013-11-02 09:55:00
5:15 AM,28.9,20.3,70,30.31,10.0,West,4.6,-,N/A,,Clear,270,2013-11-02 10:15:00
5:35 AM,28.4,21.0,74,30.32,10.0,WSW,5.8,-,N/A,,Clear,250,2013-11-02 10:35:00
5:55 AM,28.9,21.2,73,30.31,10.0,West,4.6,-,N/A,,Clear,260,2013-11-02 10:55:00
6:15 AM,28.4,20.3,72,30.32,10.0,WSW,4.6,-,N/A,,Clear,240,2013-11-02 11:15:00
6:35 AM,27.5,19.6,72,30.32,10.0,WSW,3.5,-,N/A,,Clear,250,2013-11-02 11:35:00
6:55 AM,28.2,19.9,71,30.32,10.0,WSW,4.6,-,N/A,,Clear,250,2013-11-02 11:55:00
7:15 AM,28.0,20.1,72,30.32,10.0,West,4.6,-,N/A,,Clear,260,2013-11-02 12:15:00
7:35 AM,27.5,20.5,75,30.33,10.0,West,3.5,-,N/A,,Clear,260,2013-11-02 12:35:00
7:55 AM,27.3,19.8,73,30.33,10.0,Calm,Calm,-,N/A,,Clear,0,2013-11-02 12:55:00
8:15 AM,28.0,19.4,70,30.33,10.0,Calm,Calm,-,N/A,,Clear,0,2013-11-02 13:15:00
8:35 AM,28.4,20.1,71,30.35,10.0,Calm,Calm,-,N/A,,Clear,0,2013-11-02 13:35:00
8:55 AM,30.9,21.4,68,30.35,10.0,Calm,Calm,-,N/A,,Clear,0,2013-11-02 13:55:00
9:15 AM,33.8,23.0,65,30.36,10.0,Calm,Calm,-,N/A,,Clear,0,2013-11-02 14:15:00
9:35 AM,36.9,23.9,59,30.37,10.0,Calm,Calm,-,N/A,,Clear,0,2013-11-02 14:35:00
9:55 AM,41.4,24.6,51,30.37,10.0,West,3.5,-,N/A,,Clear,260,2013-11-02 14:55:00
10:15 AM,45.7,25.0,44,30.38,10.0,SW,4.6,-,N/A,,Clear,230,2013-11-02 15:15:00
10:35 AM,50.0,23.2,35,30.38,10.0,SSW,5.8,-,N/A,,Clear,200,2013-11-02 15:35:00
10:55 AM,51.8,23.7,33,30.37,10.0,SSW,8.1,-,N/A,,Clear,210,2013-11-02 15:55:00
12:15 PM,59.4,20.7,22,30.35,10.0,SSW,12.7,-,N/A,,Clear,200,2013-11-02 17:15:00
12:35 PM,59.9,22.1,23,30.33,10.0,SSW,12.7,19.6,N/A,,Clear,200,2013-11-02 17:35:00
12:55 PM,61.2,23.4,24,30.33,10.0,South,13.8,20.7,N/A,,Clear,190,2013-11-02 17:55:00
1:15 PM,61.9,23.7,23,30.31,10.0,SSW,13.8,23.0,N/A,,Clear,210,2013-11-02 18:15:00
1:35 PM,62.1,24.6,24,30.29,10.0,SSW,17.3,26.5,N/A,,Clear,210,2013-11-02 18:35:00
1:55 PM,62.8,23.9,23,30.28,10.0,SSW,19.6,26.5,N/A,,Clear,210,2013-11-02 18:55:00
2:15 PM,64.4,24.3,22,30.26,10.0,SW,17.3,20.7,N/A,,Clear,220,2013-11-02 19:15:00
2:35 PM,64.4,23.9,21,30.24,10.0,SSW,17.3,24.2,N/A,,Clear,210,2013-11-02 19:35:00
2:55 PM,64.9,24.1,21,30.23,10.0,SSW,15.0,21.9,N/A,,Clear,210,2013-11-02 19:55:00
3:15 PM,65.3,23.9,21,30.22,10.0,SW,18.4,26.5,N/A,,Clear,220,2013-11-02 20:15:00
3:35 PM,66.0,24.3,21,30.21,10.0,SSW,13.8,24.2,N/A,,Clear,210,2013-11-02 20:35:00
3:55 PM,66.7,24.6,20,30.20,10.0,SSW,13.8,27.6,N/A,,Clear,210,2013-11-02 20:55:00
4:15 PM,67.1,24.6,20,30.19,10.0,SSW,13.8,24.2,N/A,,Clear,200,2013-11-02 21:15:00
4:35 PM,67.3,24.6,20,30.18,10.0,SSW,19.6,25.3,N/A,,Clear,200,2013-11-02 21:35:00
4:55 PM,66.7,24.6,20,30.17,10.0,SSW,17.3,28.8,N/A,,Clear,210,2013-11-02 21:55:00
5:15 PM,66.6,24.6,20,30.17,10.0,SSW,15.0,24.2,N/A,,Clear,200,2013-11-02 22:15:00
5:35 PM,66.2,24.6,21,30.16,10.0,SSW,15.0,26.5,N/A,,Clear,200,2013-11-02 22:35:00
5:55 PM,65.8,24.8,21,30.16,10.0,South,15.0,23.0,N/A,,Clear,190,2013-11-02 22:55:00
6:15 PM,64.9,24.8,22,30.15,10.0,SSW,13.8,20.7,N/A,,Clear,200,2013-11-02 23:15:00
6:35 PM,63.0,24.4,23,30.14,10.0,South,12.7,-,N/A,,Clear,190,2013-11-02 23:35:00
6:55 PM,60.1,24.8,26,30.14,10.0,South,10.4,-,N/A,,Clear,180,2013-11-02 23:55:00
7:15 PM,58.3,25.2,28,30.13,10.0,South,12.7,-,N/A,,Clear,180,2013-11-03 00:15:00
7:35 PM,56.5,25.3,30,30.13,10.0,South,11.5,-,N/A,,Clear,170,2013-11-03 00:35:00
7:55 PM,54.9,25.2,32,30.13,10.0,South,11.5,-,N/A,,Clear,180,2013-11-03 00:55:00
8:15 PM,54.0,25.2,33,30.13,10.0,South,11.5,-,N/A,,Clear,180,2013-11-03 01:15:00
8:35 PM,53.1,25.0,34,30.13,10.0,South,12.7,-,N/A,,Clear,180,2013-11-03 01:35:00
8:55 PM,53.6,25.2,33,30.13,10.0,South,15.0,-,N/A,,Clear,180,2013-11-03 01:55:00
9:15 PM,53.1,25.2,34,30.13,10.0,South,12.7,-,N/A,,Clear,180,2013-11-03 02:15:00
9:35 PM,53.1,25.2,34,30.13,10.0,South,15.0,-,N/A,,Clear,180,2013-11-03 02:35:00
9:55 PM,52.2,25.2,35,30.13,10.0,South,15.0,-,N/A,,Clear,190,2013-11-03 02:55:00
10:15 PM,51.1,25.5,37,30.12,10.0,South,12.7,-,N/A,,Clear,190,2013-11-03 03:15:00
10:35 PM,50.9,25.7,38,30.12,10.0,South,15.0,-,N/A,,Clear,190,2013-11-03 03:35:00
10:55 PM,50.9,25.7,38,30.12,10.0,South,16.1,-,N/A,,Clear,190,2013-11-03 03:55:00
11:15 PM,50.2,25.3,38,30.12,10.0,South,17.3,23.0,N/A,,Clear,190,2013-11-03 04:15:00
11:35 PM,50.2,25.3,38,30.12,10.0,South,17.3,23.0,N/A,,Clear,190,2013-11-03 04:35:00
11:55 PM,49.6,25.3,39,30.11,10.0,South,17.3,24.2,N/A,,Clear,190,2013-11-03 04:55:00